[[{"header":{"parameterUnit":"m.s-1","parameterCategory":1,"la1":30.2992,"la2":30.254,"lo1":-89.0895,"lo2":-89.0443,"dy":0.0025,"dx":0.0025,"nx":19,"ny":19,"refTime":"2026-03-22T03:00:00:Z","depth":0,"parameterNumber":2,"parameterNumberName":"U-component_of_WINDS"},"data":[0,0,0,1.9166,1.9168,1.9286,1.9286,1.9426,1.9427,0,0,0,0,0,0,0,0,0,0,0,1.9124,1.9124,1.9166,1.9169,1.9286,1.9286,1.9426,1.9427,0,0,0,0,0,0,0,0,0,0,0,1.9123,1.9124,1.9125,1.9169,1.9286,1.9286,1.9425,1.9341,0,0,0,0,0,0,0,0,0,0,1.9229,1.9182,1.9124,1.9125,1.917,1.9285,1.9286,1.9337,1.9346,1.9368,0,1.9384,0,1.9407,1.9435,1.9436,0,0,0,1.9175,1.9174,1.9213,1.9125,1.9171,1.9285,1.9235,1.9342,1.9353,1.938,1.9386,1.9391,1.941,1.9436,1.9437,1.954,1.954,0,0,1.9168,1.9141,1.9205,1.9219,1.9199,1.9231,1.9238,1.9349,1.9354,1.9386,1.9395,1.9412,1.9437,1.9438,1.954,1.954,0,0,0,1.9146,1.9136,1.9172,1.9213,1.9235,1.9234,1.9243,1.9349,1.9363,1.9396,1.9414,1.9438,1.9439,1.954,1.954,1.9523,0,0,0,1.9142,1.9123,1.9169,1.9153,1.9232,1.9293,1.924,1.9355,1.9369,1.9413,1.9438,1.9441,1.9539,1.954,1.9523,1.9519,0,0,0,1.9119,1.912,1.9134,1.9151,1.9201,1.9292,1.9312,1.9359,1.9379,1.9436,1.9441,1.9539,1.954,1.9523,1.9519,1.9539,0,0,0,1.9086,1.9117,1.9133,1.9175,1.92,1.928,1.9312,1.9373,1.942,1.9439,1.9539,1.954,1.9523,1.952,1.9539,1.955,1.9552,0,0,1.911,1.9119,1.9146,1.9164,1.9234,1.9264,1.9333,1.9402,1.9433,1.9503,1.9506,1.9523,1.9519,1.9539,1.9574,1.9575,0,0,0,1.9144,1.9163,1.9188,1.9231,1.9284,1.9331,1.9393,1.9419,1.9479,1.9463,1.9536,1.9535,1.9547,1.9554,1.9556,1.9569,1.9542,1.9542,1.9542,1.9137,1.9176,1.9223,1.9276,1.9318,1.9382,1.942,1.9467,1.9493,1.951,1.953,1.9547,1.9554,1.9555,1.9568,1.954,1.954,1.954,1.9539,1.9176,1.9209,1.9245,1.9303,1.9345,1.9395,1.9459,1.9476,1.953,1.9534,1.9547,1.9548,1.9555,1.9569,1.9539,1.9539,1.9539,1.9539,1.9539,1.9176,1.9199,1.923,1.9298,1.9347,1.94,1.945,1.9486,1.952,1.9533,1.956,1.956,1.9566,1.9543,1.9544,1.9544,1.9544,1.9544,1.9544,1.9163,1.9199,1.9237,1.9298,1.9332,1.9381,1.9447,1.9482,1.953,1.9552,1.9552,1.9577,1.9549,1.9541,1.9545,1.9545,1.9544,1.9544,1.9544,1.9187,1.9188,1.9246,1.928,1.9356,1.9403,1.9448,1.9516,1.955,1.9574,1.9598,1.957,1.9582,1.9582,1.9575,1.9589,1.9589,1.9589,1.9589,1.9187,1.9197,1.9265,1.9317,1.9373,1.942,1.9487,1.954,1.9595,1.9619,1.9623,1.9618,1.9615,1.9629,1.9627,1.9622,1.9647,1.9647,1.9647,1.9205,1.9222,1.927,1.9324,1.9387,1.9441,1.9505,1.9565,1.9628,1.965,1.9639,1.9637,1.9629,1.9624,1.9645,1.9641,1.9632,0,0]},{"header":{"parameterUnit":"m.s-1","parameterCategory":1,"la1":30.2992,"la2":30.254,"lo1":-89.0895,"lo2":-89.0443,"dy":0.0025,"dx":0.0025,"nx":19,"ny":19,"refTime":"2026-03-22T03:00:00:Z","depth":0,"parameterNumber":3,"parameterNumberName":"V-component_of_WINDS"},"data":[0,0,0,2.2548,2.2549,2.2596,2.2596,2.2648,2.2648,0,0,0,0,0,0,0,0,0,0,0,2.2531,2.2531,2.2548,2.2549,2.2596,2.2596,2.2648,2.2648,0,0,0,0,0,0,0,0,0,0,0,2.2531,2.2531,2.2531,2.2549,2.2596,2.2596,2.2648,2.2615,0,0,0,0,0,0,0,0,0,0,2.2571,2.2551,2.2531,2.2531,2.2549,2.2596,2.2596,2.2613,2.2617,2.2624,0,2.263,0,2.264,2.2651,2.2652,0,0,0,2.2551,2.2548,2.2565,2.2531,2.255,2.2596,2.2575,2.2615,2.2619,2.2628,2.2631,2.2633,2.2641,2.2652,2.2652,2.2689,2.269,0,0,2.2549,2.2537,2.2562,2.2567,2.2561,2.2574,2.2577,2.2618,2.2619,2.2631,2.2634,2.2642,2.2652,2.2652,2.2689,2.2689,0,0,0,2.254,2.2535,2.255,2.2565,2.2574,2.2575,2.2578,2.2617,2.2624,2.2635,2.2643,2.2652,2.2653,2.2689,2.2689,2.2683,0,0,0,2.2538,2.253,2.2549,2.2542,2.2573,2.2596,2.2577,2.2621,2.2626,2.2642,2.2652,2.2653,2.2689,2.2689,2.2683,2.2682,0,0,0,2.2529,2.2528,2.2534,2.2541,2.2561,2.2596,2.2605,2.2622,2.263,2.2652,2.2653,2.2689,2.2689,2.2683,2.2682,2.269,0,0,0,2.2514,2.2526,2.2534,2.255,2.2561,2.2592,2.2605,2.2628,2.2646,2.2653,2.2689,2.2689,2.2683,2.2682,2.269,2.2695,2.2696,0,0,2.2522,2.2526,2.2537,2.2545,2.2573,2.2586,2.2613,2.2639,2.265,2.2675,2.2676,2.2683,2.2682,2.269,2.2704,2.2704,0,0,0,2.2535,2.2543,2.2553,2.257,2.2592,2.2611,2.2635,2.2645,2.2667,2.2661,2.2688,2.2688,2.2693,2.2696,2.2697,2.2702,2.269,2.269,2.269,2.2528,2.2545,2.2564,2.2587,2.2604,2.263,2.2645,2.2663,2.2672,2.2679,2.2686,2.2693,2.2696,2.2697,2.2702,2.269,2.269,2.269,2.269,2.2542,2.2556,2.2572,2.2596,2.2613,2.2633,2.2659,2.2666,2.2687,2.2688,2.2693,2.2694,2.2697,2.2703,2.2689,2.2689,2.2689,2.2689,2.2689,2.254,2.2549,2.2563,2.2592,2.2613,2.2635,2.2655,2.267,2.2683,2.2688,2.2699,2.2699,2.2702,2.2692,2.2692,2.2693,2.2693,2.2693,2.2693,2.2532,2.2548,2.2565,2.2591,2.2606,2.2626,2.2654,2.2668,2.2688,2.2696,2.2697,2.2707,2.2694,2.2691,2.2693,2.2693,2.2693,2.2693,2.2693,2.254,2.2542,2.2567,2.2582,2.2615,2.2636,2.2655,2.2683,2.2697,2.2707,2.2716,2.2704,2.2709,2.2708,2.2706,2.2712,2.2712,2.2712,2.2712,2.2539,2.2544,2.2575,2.2598,2.2622,2.2643,2.2671,2.2694,2.2716,2.2726,2.2727,2.2725,2.2724,2.2729,2.2729,2.2727,2.2738,2.2738,2.2738,2.2546,2.2554,2.2576,2.2601,2.2628,2.2652,2.268,2.2705,2.273,2.2739,2.2734,2.2733,2.273,2.2728,2.2736,2.2734,2.2731,0,0]}]]